| time (UTC) | temp F | wind direction | speed knots | gust knots | rain 1hr in | rain 24hr in | rain mn in | humidity % | barometer mb |
| 20260505004226 | 77 | 136 | 2.6 | 4.3 | 0.00 | 0.00 | 0.00 | 80 | 1013.5 |
| 20260505001226 | 77 | 143 | 2.6 | 7.0 | 0.00 | 0.00 | 0.00 | 86 | 1013.6 |
| 20260504234226 | 75 | 144 | 2.6 | 6.1 | 0.00 | 0.00 | 0.00 | 88 | 1013.6 |
| 20260504231226 | 75 | 140 | 2.6 | 6.1 | 0.00 | 0.00 | 0.00 | 90 | 1013.9 |
| 20260504224226 | 74 | 135 | 2.6 | 6.1 | 0.00 | 0.00 | 0.00 | 94 | 1013.9 |
| 20260504221226 | 72 | 138 | 1.7 | 3.5 | 0.00 | 0.00 | 0.00 | 97 | 1013.8 |
| 20260504214226 | 69 | 156 | 2.6 | 5.2 | 0.00 | 0.00 | 0.00 | 98 | 1013.7 |
| 20260504211226 | 67 | 158 | 1.7 | 4.3 | 0.00 | 0.00 | 0.00 | 98 | 1013.4 |
| 20260504204226 | 66 | 165 | 1.7 | 4.3 | 0.00 | 0.01 | 0.00 | 97 | 1013.3 |
| 20260504201226 | 66 | 176 | 1.7 | 5.2 | 0.00 | 0.01 | 0.00 | 97 | 1013.0 |
| 20260504194226 | 66 | 159 | 1.7 | 3.5 | 0.00 | 0.01 | 0.00 | 97 | 1012.7 |
| 20260504191226 | 66 | 154 | 1.7 | 3.5 | 0.00 | 0.01 | 0.00 | 96 | 1012.4 |
| 20260504184226 | 66 | 165 | 1.7 | 3.5 | 0.00 | 0.01 | 0.00 | 96 | 1012.0 |
| 20260504181226 | 66 | 154 | 0.9 | 3.5 | 0.00 | 0.01 | 0.00 | 96 | 1012.0 |
| 20260504174226 | 66 | 171 | 0.9 | 3.5 | 0.00 | 0.01 | 0.00 | 96 | 1012.0 |
| 20260504171226 | 66 | 156 | 0.9 | 2.6 | 0.00 | 0.01 | 0.00 | 96 | 1012.2 |
| 20260504141226 | 68 | 154 | 0.9 | 2.6 | 0.00 | 0.01 | 0.00 | 93 | 1013.2 |
| 20260504081226 | 73 | 129 | 0.9 | 3.5 | 0.00 | 0.01 | 0.01 | 84 | 1013.0 |
| 20260504044226 | 79 | 112 | 2.6 | 4.3 | 0.00 | 0.01 | 0.01 | 72 | 1011.9 |
| 20260504041226 | 79 | 138 | 2.6 | 6.1 | 0.00 | 0.01 | 0.01 | 72 | 1012.1 |
| 20260504034226 | 79 | 116 | 1.7 | 3.5 | 0.00 | 0.01 | 0.01 | 73 | 1012.3 |
| 20260504031226 | 79 | 135 | 2.6 | 5.2 | 0.00 | 0.01 | 0.01 | 73 | 1012.4 |
| 20260504024226 | 78 | 124 | 2.6 | 4.3 | 0.00 | 0.01 | 0.01 | 77 | 1012.7 |
| 20260504021226 | 78 | 115 | 2.6 | 5.2 | 0.00 | 0.01 | 0.01 | 80 | 1013.1 |
| 20260504014226 | 77 | 132 | 1.7 | 3.5 | 0.00 | 0.01 | 0.01 | 81 | 1013.7 |
| 20260504011226 | 78 | 136 | 2.6 | 6.1 | 0.00 | 0.01 | 0.01 | 83 | 1014.1 |